Data No,UTC Date,UTC Time,Latitude,Longitude,Course(deg),Temp(degC),Sal(psu)
517,2023/5/8,8:36,42-36.96N,141-37.10E,211,8.532,
518,2023/5/8,8:37,42-36.72N,141-36.91E,211,7.806,
519,2023/5/8,8:38,42-36.48N,141-36.78E,190,8.031,
520,2023/5/8,8:39,42-36.22N,141-36.88E,155,8.653,
521,2023/5/8,8:40,42-35.97N,141-37.07E,151,8.454,
522,2023/5/8,8:41,42-35.71N,141-37.25E,151,8.583,
523,2023/5/8,8:42,42-35.48N,141-37.50E,135,8.469,
524,2023/5/8,8:43,42-35.27N,141-37.80E,131,8.37,
525,2023/5/8,8:44,42-35.07N,141-38.12E,130,8.537,
526,2023/5/8,8:45,42-34.86N,141-38.45E,130,8.595,
527,2023/5/8,8:46,42-34.66N,141-38.77E,130,8.589,
528,2023/5/8,8:47,42-34.45N,141-39.10E,130,8.574,
529,2023/5/8,8:48,42-34.24N,141-39.43E,131,8.581,
530,2023/5/8,8:49,42-34.02N,141-39.75E,131,8.599,
531,2023/5/8,8:50,42-33.80N,141-40.09E,131,8.694,
532,2023/5/8,8:51,42-33.59N,141-40.43E,131,8.812,
533,2023/5/8,8:52,42-33.36N,141-40.77E,131,8.874,
534,2023/5/8,8:53,42-33.14N,141-41.12E,131,8.967,
535,2023/5/8,8:54,42-32.92N,141-41.43E,131,9.019,
536,2023/5/8,8:55,42-32.69N,141-41.80E,131,8.982,
537,2023/5/8,8:56,42-32.47N,141-42.12E,131,9.042,
538,2023/5/8,8:57,42-32.24N,141-42.46E,131,9.047,
539,2023/5/8,8:58,42-31.98N,141-42.85E,131,9.04,
540,2023/5/8,8:59,42-31.74N,141-43.21E,131,9.021,
541,2023/5/8,9:00,42-31.51N,141-43.56E,131,9.031,
542,2023/5/8,9:01,42-31.28N,141-43.91E,131,8.971,
543,2023/5/8,9:02,42-31.06N,141-44.27E,128,8.761,
544,2023/5/8,9:03,42-30.84N,141-44.65E,128,8.742,
545,2023/5/8,9:04,42-30.62N,141-45.03E,127,8.538,
546,2023/5/8,9:05,42-30.40N,141-45.40E,128,8.527,
547,2023/5/8,9:06,42-30.22N,141-45.72E,128,8.551,
548,2023/5/8,9:07,42-30.00N,141-46.09E,128,8.682,
549,2023/5/8,9:08,42-29.78N,141-46.47E,128,8.792,
550,2023/5/8,9:09,42-29.53N,141-46.88E,128,8.829,
551,2023/5/8,9:10,42-29.33N,141-47.22E,128,8.905,
552,2023/5/8,9:11,42-29.10N,141-47.61E,129,8.879,
553,2023/5/8,9:12,42-28.87N,141-47.96E,132,8.882,
554,2023/5/8,9:13,42-28.62N,141-48.31E,133,8.662,
555,2023/5/8,9:14,42-28.38N,141-48.67E,132,8.451,
556,2023/5/8,9:15,42-28.14N,141-49.05E,129,8.493,
557,2023/5/8,9:16,42-27.92N,141-49.42E,128,8.856,
558,2023/5/8,9:17,42-27.69N,141-49.79E,128,8.96,
559,2023/5/8,9:18,42-27.47N,141-50.17E,128,8.984,
560,2023/5/8,9:19,42-27.25N,141-50.55E,128,8.96,
561,2023/5/8,9:20,42-27.02N,141-50.94E,128,8.856,
562,2023/5/8,9:21,42-26.80N,141-51.31E,128,8.858,
563,2023/5/8,9:22,42-26.57N,141-51.69E,128,8.936,
564,2023/5/8,9:23,42-26.39N,141-52.09E,115,8.951,
565,2023/5/8,9:24,42-26.20N,141-52.51E,125,9.028,
566,2023/5/8,9:25,42-25.99N,141-52.89E,126,9.037,
567,2023/5/8,9:26,42-25.77N,141-53.28E,126,9.015,
568,2023/5/8,9:27,42-25.55N,141-53.68E,127,9.068,
569,2023/5/8,9:28,42-25.33N,141-54.07E,127,9.069,
570,2023/5/8,9:29,42-25.10N,141-54.46E,127,8.953,
571,2023/5/8,9:30,42-24.88N,141-54.85E,128,8.767,
572,2023/5/8,9:31,42-24.65N,141-55.24E,128,8.652,
573,2023/5/8,9:32,42-24.42N,141-55.62E,128,8.595,
574,2023/5/8,9:33,42-24.19N,141-56.01E,128,8.776,
575,2023/5/8,9:34,42-23.96N,141-56.40E,128,8.887,
576,2023/5/8,9:35,42-23.72N,141-56.79E,128,8.91,
577,2023/5/8,9:36,42-23.49N,141-57.18E,129,8.974,
578,2023/5/8,9:37,42-23.26N,141-57.56E,128,8.884,
579,2023/5/8,9:38,42-23.03N,141-57.95E,128,8.83,
580,2023/5/8,9:39,42-22.79N,141-58.33E,133,8.804,
581,2023/5/8,9:40,42-22.54N,141-58.69E,132,8.769,
582,2023/5/8,9:41,42-22.29N,141-59.06E,132,8.79,
583,2023/5/8,9:42,42-22.04N,141-59.42E,132,8.841,
584,2023/5/8,9:43,42-21.79N,141-59.78E,133,8.864,
585,2023/5/8,9:44,42-21.53N,142-00.14E,133,8.838,
586,2023/5/8,9:45,42-21.27N,142-00.52E,133,8.678,
587,2023/5/8,9:46,42-21.02N,142-00.86E,133,8.361,
588,2023/5/8,9:47,42-20.77N,142-01.21E,133,8.371,
589,2023/5/8,9:48,42-20.51N,142-01.57E,133,8.441,
590,2023/5/8,9:49,42-20.26N,142-01.93E,133,8.491,
591,2023/5/8,9:50,42-20.00N,142-02.29E,133,8.486,
592,2023/5/8,9:51,42-19.74N,142-02.65E,133,8.484,
593,2023/5/8,9:52,42-19.49N,142-03.01E,133,8.491,
594,2023/5/8,9:53,42-19.24N,142-03.36E,133,8.484,
595,2023/5/8,9:54,42-18.98N,142-03.72E,133,8.468,
596,2023/5/8,9:55,42-18.73N,142-04.08E,133,8.478,
597,2023/5/8,9:56,42-18.48N,142-04.44E,133,8.432,
598,2023/5/8,9:57,42-18.20N,142-04.82E,133,8.396,
599,2023/5/8,9:58,42-17.97N,142-05.16E,133,8.364,
600,2023/5/8,9:59,42-17.71N,142-05.53E,133,8.314,
601,2023/5/8,10:00,42-17.46N,142-05.89E,133,8.265,
602,2023/5/8,10:01,42-17.20N,142-06.26E,133,8.213,
603,2023/5/8,10:02,42-16.93N,142-06.63E,133,8.197,
604,2023/5/8,10:03,42-16.68N,142-06.99E,133,8.194,
605,2023/5/8,10:04,42-16.43N,142-07.36E,133,8.27,
606,2023/5/8,10:05,42-16.17N,142-07.73E,133,8.243,
607,2023/5/8,10:06,42-15.93N,142-08.11E,127,8.132,
608,2023/5/8,10:07,42-15.72N,142-08.53E,121,8.188,
609,2023/5/8,10:08,42-15.53N,142-08.97E,118,8.173,
610,2023/5/8,10:09,42-15.36N,142-09.41E,118,8.133,
611,2023/5/8,10:10,42-15.19N,142-09.84E,118,8.093,
612,2023/5/8,10:11,42-15.01N,142-10.27E,118,8.138,
613,2023/5/8,10:12,42-14.82N,142-10.74E,118,8.174,
614,2023/5/8,10:13,42-14.65N,142-11.19E,118,8.24,
615,2023/5/8,10:14,42-14.47N,142-11.61E,118,8.245,
616,2023/5/8,10:15,42-14.29N,142-12.06E,118,8.186,
617,2023/5/8,10:16,42-14.15N,142-12.41E,118,8.173,
618,2023/5/8,10:17,42-13.99N,142-12.83E,118,8.301,
619,2023/5/8,10:18,42-13.82N,142-13.25E,117,8.555,
620,2023/5/8,10:19,42-13.65N,142-13.67E,119,8.515,
621,2023/5/8,10:20,42-13.48N,142-14.09E,118,8.215,
622,2023/5/8,10:21,42-13.30N,142-14.51E,119,7.955,
623,2023/5/8,10:22,42-13.13N,142-14.96E,118,7.826,
624,2023/5/8,10:23,42-12.96N,142-15.37E,118,7.729,
625,2023/5/8,10:24,42-12.79N,142-15.78E,118,7.672,
626,2023/5/8,10:25,42-12.62N,142-16.21E,118,7.693,
627,2023/5/8,10:26,42-12.46N,142-16.61E,118,7.59,
628,2023/5/8,10:27,42-12.29N,142-17.03E,118,7.433,
629,2023/5/8,10:28,42-12.12N,142-17.45E,118,7.417,
630,2023/5/8,10:29,42-11.94N,142-17.89E,119,7.415,
631,2023/5/8,10:30,42-11.78N,142-18.31E,119,7.411,
632,2023/5/8,10:31,42-11.61N,142-18.72E,118,7.445,
633,2023/5/8,10:32,42-11.44N,142-19.13E,118,7.633,
634,2023/5/8,10:33,42-11.27N,142-19.54E,118,7.792,
635,2023/5/8,10:34,42-11.10N,142-19.96E,119,7.848,
636,2023/5/8,10:35,42-10.93N,142-20.37E,119,7.716,
637,2023/5/8,10:36,42-10.76N,142-20.78E,119,7.867,
638,2023/5/8,10:37,42-10.59N,142-21.20E,118,8.129,
639,2023/5/8,10:38,42-10.42N,142-21.62E,119,8.136,
640,2023/5/8,10:39,42-10.25N,142-22.05E,118,8.068,
641,2023/5/8,10:40,42-10.08N,142-22.46E,119,7.993,
642,2023/5/8,10:41,42-09.91N,142-22.88E,118,7.872,
643,2023/5/8,10:42,42-09.74N,142-23.30E,119,7.819,
644,2023/5/8,10:43,42-09.57N,142-23.71E,119,7.82,
645,2023/5/8,10:44,42-09.40N,142-24.12E,119,7.769,
646,2023/5/8,10:45,42-09.23N,142-24.54E,118,7.619,
647,2023/5/8,10:46,42-09.06N,142-24.95E,118,7.521,
648,2023/5/8,10:47,42-08.89N,142-25.36E,118,7.451,
649,2023/5/8,10:48,42-08.72N,142-25.78E,118,7.558,
650,2023/5/8,10:49,42-08.55N,142-26.19E,118,7.587,
651,2023/5/8,10:50,42-08.38N,142-26.61E,118,7.649,
652,2023/5/8,10:51,42-08.20N,142-27.05E,118,7.739,
653,2023/5/8,10:52,42-08.03N,142-27.45E,118,7.706,
654,2023/5/8,10:53,42-07.86N,142-27.87E,118,7.761,
655,2023/5/8,10:54,42-07.69N,142-28.28E,118,7.705,
656,2023/5/8,10:55,42-07.53N,142-28.69E,118,7.622,
657,2023/5/8,10:56,42-07.36N,142-29.10E,118,7.603,
658,2023/5/8,10:57,42-07.19N,142-29.53E,118,7.634,
659,2023/5/8,10:58,42-07.02N,142-29.94E,118,7.576,
660,2023/5/8,10:59,42-06.84N,142-30.36E,118,7.406,
661,2023/5/8,11:00,42-06.67N,142-30.78E,118,7.405,
662,2023/5/8,11:01,42-06.50N,142-31.21E,118,7.5,
663,2023/5/8,11:02,42-06.33N,142-31.61E,119,7.549,
664,2023/5/8,11:03,42-06.16N,142-32.03E,119,7.593,
665,2023/5/8,11:04,42-05.98N,142-32.44E,119,7.632,
666,2023/5/8,11:05,42-05.80N,142-32.87E,119,7.656,
667,2023/5/8,11:06,42-05.64N,142-33.27E,119,7.689,
668,2023/5/8,11:07,42-05.46N,142-33.68E,119,7.644,
669,2023/5/8,11:08,42-05.28N,142-34.10E,119,7.499,
670,2023/5/8,11:09,42-05.12N,142-34.51E,117,7.337,
671,2023/5/8,11:10,42-04.97N,142-34.94E,114,7.213,
672,2023/5/8,11:11,42-04.82N,142-35.38E,113,7.076,
673,2023/5/8,11:12,42-04.68N,142-35.82E,113,7.071,
674,2023/5/8,11:13,42-04.54N,142-36.24E,113,7.157,
675,2023/5/8,11:14,42-04.40N,142-36.67E,113,7.23,
676,2023/5/8,11:15,42-04.25N,142-37.12E,113,7.216,
677,2023/5/8,11:16,42-04.11N,142-37.53E,113,7.219,
678,2023/5/8,11:17,42-03.98N,142-37.96E,113,7.193,
679,2023/5/8,11:18,42-03.84N,142-38.40E,113,7.117,
680,2023/5/8,11:19,42-03.69N,142-38.85E,113,7.108,
681,2023/5/8,11:20,42-03.56N,142-39.26E,113,7.071,
682,2023/5/8,11:21,42-03.42N,142-39.69E,113,7.049,
683,2023/5/8,11:22,42-03.28N,142-40.11E,113,7.049,
684,2023/5/8,11:23,42-03.15N,142-40.54E,113,7.001,
685,2023/5/8,11:24,42-03.01N,142-40.97E,113,6.99,
686,2023/5/8,11:25,42-02.87N,142-41.40E,113,7.025,
687,2023/5/8,11:26,42-02.73N,142-41.82E,113,7.051,
688,2023/5/8,11:27,42-02.59N,142-42.25E,113,7.085,
689,2023/5/8,11:28,42-02.45N,142-42.68E,113,7.135,
690,2023/5/8,11:29,42-02.31N,142-43.12E,113,7.168,
691,2023/5/8,11:30,42-02.17N,142-43.54E,114,7.162,
692,2023/5/8,11:31,42-02.03N,142-43.96E,113,7.14,
693,2023/5/8,11:32,42-01.90N,142-44.38E,113,7.151,
694,2023/5/8,11:33,42-01.76N,142-44.81E,112,7.048,
695,2023/5/8,11:34,42-01.63N,142-45.23E,112,6.885,
696,2023/5/8,11:35,42-01.50N,142-45.65E,112,6.354,
697,2023/5/8,11:36,42-01.36N,142-46.08E,113,6.124,
698,2023/5/8,11:37,42-01.22N,142-46.51E,113,5.977,
699,2023/5/8,11:38,42-01.09N,142-46.92E,113,5.93,
700,2023/5/8,11:39,42-00.96N,142-47.34E,112,5.918,
701,2023/5/8,11:40,42-00.83N,142-47.77E,113,5.807,
702,2023/5/8,11:41,42-00.69N,142-48.19E,113,5.709,
703,2023/5/8,11:42,42-00.56N,142-48.60E,113,5.756,
704,2023/5/8,11:43,42-00.42N,142-49.02E,113,5.809,
705,2023/5/8,11:44,42-00.29N,142-49.44E,113,5.824,
706,2023/5/8,11:45,42-00.16N,142-49.86E,113,5.833,
707,2023/5/8,11:46,42-00.01N,142-50.28E,114,5.798,
708,2023/5/8,11:47,41-59.87N,142-50.69E,114,5.708,
709,2023/5/8,11:48,41-59.73N,142-51.11E,114,5.661,
710,2023/5/8,11:49,41-59.59N,142-51.52E,114,5.553,
711,2023/5/8,11:50,41-59.45N,142-51.94E,114,5.401,
712,2023/5/8,11:51,41-59.31N,142-52.36E,113,5.265,
713,2023/5/8,11:52,41-59.17N,142-52.79E,113,5.208,
714,2023/5/8,11:53,41-59.03N,142-53.21E,114,5.254,
715,2023/5/8,11:54,41-58.89N,142-53.63E,113,5.263,
716,2023/5/8,11:55,41-58.75N,142-54.06E,114,5.267,
717,2023/5/8,11:56,41-58.60N,142-54.48E,114,5.269,
718,2023/5/8,11:57,41-58.46N,142-54.91E,114,5.306,
719,2023/5/8,11:58,41-58.32N,142-55.33E,113,5.312,
720,2023/5/8,11:59,41-58.18N,142-55.75E,114,5.305,
721,2023/5/8,12:00,41-58.03N,142-56.17E,114,5.304,
722,2023/5/8,12:01,41-57.89N,142-56.60E,114,5.263,
723,2023/5/8,12:02,41-57.75N,142-57.02E,115,5.2,
724,2023/5/8,12:03,41-57.60N,142-57.43E,115,5.16,
725,2023/5/8,12:04,41-57.45N,142-57.85E,114,5.108,
726,2023/5/8,12:05,41-57.31N,142-58.28E,114,5.187,
727,2023/5/8,12:06,41-57.16N,142-58.71E,114,5.217,
728,2023/5/8,12:07,41-57.01N,142-59.12E,114,5.219,
729,2023/5/8,12:08,41-56.86N,142-59.54E,115,5.17,
730,2023/5/8,12:09,41-56.71N,142-59.97E,115,5.138,
731,2023/5/8,12:10,41-56.56N,143-00.39E,115,5.133,
732,2023/5/8,12:11,41-56.41N,143-00.81E,115,5.138,
733,2023/5/8,12:12,41-56.26N,143-01.22E,115,5.169,
734,2023/5/8,12:13,41-56.11N,143-01.63E,115,5.214,
735,2023/5/8,12:14,41-55.96N,143-02.05E,116,5.259,
736,2023/5/8,12:15,41-55.81N,143-02.46E,116,5.278,
737,2023/5/8,12:16,41-55.64N,143-02.89E,116,5.323,
738,2023/5/8,12:17,41-55.50N,143-03.28E,117,5.348,
739,2023/5/8,12:18,41-55.34N,143-03.70E,117,5.359,
740,2023/5/8,12:19,41-55.18N,143-04.10E,117,5.367,
741,2023/5/8,12:20,41-55.02N,143-04.52E,116,5.398,
742,2023/5/8,12:21,41-54.86N,143-04.93E,117,5.398,
743,2023/5/8,12:22,41-54.70N,143-05.34E,117,5.375,
744,2023/5/8,12:23,41-54.55N,143-05.75E,116,5.292,
745,2023/5/8,12:24,41-54.39N,143-06.16E,117,4.99,
746,2023/5/8,12:25,41-54.22N,143-06.59E,117,4.758,
747,2023/5/8,12:26,41-54.07N,143-06.99E,117,4.761,
748,2023/5/8,12:27,41-53.91N,143-07.39E,117,4.867,
749,2023/5/8,12:28,41-53.76N,143-07.80E,117,4.991,
750,2023/5/8,12:29,41-53.60N,143-08.20E,118,5.138,
751,2023/5/8,12:30,41-53.43N,143-08.60E,119,5.264,
752,2023/5/8,12:31,41-53.26N,143-09.00E,119,5.302,
753,2023/5/8,12:32,41-53.10N,143-09.39E,119,5.192,
754,2023/5/8,12:33,41-52.93N,143-09.78E,119,5.266,
755,2023/5/8,12:34,41-52.76N,143-10.17E,119,5.062,
756,2023/5/8,12:35,41-52.59N,143-10.57E,120,4.945,
757,2023/5/8,12:36,41-52.41N,143-10.96E,120,5.025,
758,2023/5/8,12:37,41-52.25N,143-11.34E,120,5.212,
759,2023/5/8,12:38,41-52.08N,143-11.72E,120,5.464,
760,2023/5/8,12:39,41-51.91N,143-12.10E,120,5.551,
761,2023/5/8,12:40,41-51.73N,143-12.49E,121,5.518,
762,2023/5/8,12:41,41-51.56N,143-12.88E,121,5.373,
763,2023/5/8,12:42,41-51.38N,143-13.28E,117,5.174,
764,2023/5/8,12:43,41-51.25N,143-13.68E,111,4.881,
765,2023/5/8,12:44,41-51.14N,143-14.09E,108,4.841,
766,2023/5/8,12:45,41-51.12N,143-14.53E,87,4.858,
767,2023/5/8,12:46,41-51.14N,143-14.94E,86,4.958,
768,2023/5/8,12:47,41-51.17N,143-15.38E,85,4.986,
769,2023/5/8,12:48,41-51.19N,143-15.81E,85,5.058,
770,2023/5/8,12:49,41-51.22N,143-16.24E,85,5.094,
771,2023/5/8,12:50,41-51.24N,143-16.67E,85,5.116,
772,2023/5/8,12:51,41-51.26N,143-17.10E,87,4.938,
773,2023/5/8,12:52,41-51.28N,143-17.55E,86,4.845,
774,2023/5/8,12:53,41-51.32N,143-17.97E,81,4.78,
775,2023/5/8,12:54,41-51.38N,143-18.39E,76,4.801,
776,2023/5/8,12:55,41-51.49N,143-18.79E,65,4.79,
777,2023/5/8,12:56,41-51.66N,143-19.14E,55,4.766,
778,2023/5/8,12:57,41-51.87N,143-19.53E,54,4.773,
779,2023/5/8,12:58,41-52.06N,143-19.88E,54,4.706,
780,2023/5/8,12:59,41-52.22N,143-20.19E,53,4.701,
781,2023/5/8,13:00,41-52.42N,143-20.53E,50,4.675,
782,2023/5/8,13:01,41-52.62N,143-20.87E,51,4.639,
783,2023/5/8,13:02,41-52.83N,143-21.20E,51,4.606,
784,2023/5/8,13:03,41-53.03N,143-21.54E,51,4.591,
785,2023/5/8,13:04,41-53.26N,143-21.91E,47,4.558,
786,2023/5/8,13:05,41-53.50N,143-22.13E,30,4.542,
787,2023/5/8,13:06,41-53.79N,143-22.34E,27,4.54,
788,2023/5/8,13:07,41-54.08N,143-22.55E,27,4.558,
789,2023/5/8,13:08,41-54.37N,143-22.76E,28,4.557,
790,2023/5/8,13:09,41-54.67N,143-22.97E,28,4.562,
791,2023/5/8,13:10,41-54.97N,143-23.19E,28,4.543,
792,2023/5/8,13:11,41-55.27N,143-23.41E,28,4.501,
793,2023/5/8,13:12,41-55.57N,143-23.63E,29,4.488,
794,2023/5/8,13:13,41-55.87N,143-23.85E,28,4.494,
795,2023/5/8,13:14,41-56.17N,143-24.07E,28,4.544,
796,2023/5/8,13:15,41-56.47N,143-24.29E,28,4.46,
797,2023/5/8,13:16,41-56.78N,143-24.52E,29,4.471,
798,2023/5/8,13:17,41-57.07N,143-24.74E,28,4.468,
799,2023/5/8,13:18,41-57.37N,143-24.97E,29,4.533,
800,2023/5/8,13:19,41-57.68N,143-25.19E,28,4.589,
801,2023/5/8,13:20,41-57.99N,143-25.41E,27,4.607,
802,2023/5/8,13:21,41-58.29N,143-25.63E,28,4.593,
803,2023/5/8,13:22,41-58.60N,143-25.85E,28,4.606,
804,2023/5/8,13:23,41-58.90N,143-26.08E,28,4.641,
805,2023/5/8,13:24,41-59.21N,143-26.30E,27,4.635,
806,2023/5/8,13:25,41-59.52N,143-26.52E,28,4.576,
807,2023/5/8,13:26,41-59.82N,143-26.74E,28,4.531,
808,2023/5/8,13:27,42-00.12N,143-26.97E,28,4.511,
809,2023/5/8,13:28,42-00.42N,143-27.19E,29,4.563,
810,2023/5/8,13:29,42-00.72N,143-27.42E,29,4.562,
811,2023/5/8,13:30,42-01.02N,143-27.64E,29,4.57,
812,2023/5/8,13:31,42-01.32N,143-27.87E,29,4.575,
813,2023/5/8,13:32,42-01.61N,143-28.09E,29,4.545,
814,2023/5/8,13:33,42-01.91N,143-28.31E,29,4.413,
815,2023/5/8,13:34,42-02.20N,143-28.53E,29,4.248,
816,2023/5/8,13:35,42-02.50N,143-28.75E,28,4.277,
817,2023/5/8,13:36,42-02.79N,143-28.96E,28,4.572,
818,2023/5/8,13:37,42-03.10N,143-29.18E,28,4.865,
819,2023/5/8,13:38,42-03.39N,143-29.40E,28,4.875,
820,2023/5/8,13:39,42-03.69N,143-29.61E,28,4.894,
821,2023/5/8,13:40,42-03.99N,143-29.83E,28,4.949,
822,2023/5/8,13:41,42-04.29N,143-30.05E,27,4.958,
823,2023/5/8,13:42,42-04.58N,143-30.26E,27,4.886,
824,2023/5/8,13:43,42-04.87N,143-30.46E,27,4.826,
825,2023/5/8,13:44,42-05.16N,143-30.67E,28,4.76,
826,2023/5/8,13:45,42-05.46N,143-30.88E,27,4.741,
827,2023/5/8,13:46,42-05.76N,143-31.08E,27,4.996,
828,2023/5/8,13:47,42-06.06N,143-31.28E,26,5.035,
829,2023/5/8,13:48,42-06.36N,143-31.49E,27,5.048,
830,2023/5/8,13:49,42-06.67N,143-31.70E,27,5.021,
831,2023/5/8,13:50,42-06.97N,143-31.91E,27,5.041,
832,2023/5/8,13:51,42-07.27N,143-32.12E,25,5.002,
833,2023/5/8,13:52,42-07.58N,143-32.33E,26,5.004,
834,2023/5/8,13:53,42-07.89N,143-32.54E,26,4.916,
835,2023/5/8,13:54,42-08.19N,143-32.75E,27,4.947,
836,2023/5/8,13:55,42-08.50N,143-32.96E,27,4.874,
837,2023/5/8,13:56,42-08.81N,143-33.18E,27,4.907,
838,2023/5/8,13:57,42-09.11N,143-33.39E,27,4.957,
839,2023/5/8,13:58,42-09.42N,143-33.60E,26,4.912,
840,2023/5/8,13:59,42-09.72N,143-33.81E,27,4.844,
841,2023/5/8,14:00,42-10.03N,143-34.02E,27,4.866,
842,2023/5/8,14:01,42-10.34N,143-34.23E,27,4.936,
843,2023/5/8,14:02,42-10.64N,143-34.44E,26,5.005,
844,2023/5/8,14:03,42-10.95N,143-34.66E,26,5.091,
845,2023/5/8,14:04,42-11.27N,143-34.88E,27,5.117,
846,2023/5/8,14:05,42-11.56N,143-35.09E,27,5.24,
847,2023/5/8,14:06,42-11.87N,143-35.30E,27,5.303,
848,2023/5/8,14:07,42-12.19N,143-35.53E,28,5.323,
849,2023/5/8,14:08,42-12.48N,143-35.74E,27,5.368,
850,2023/5/8,14:09,42-12.78N,143-35.95E,27,5.39,
851,2023/5/8,14:10,42-13.08N,143-36.17E,27,5.383,
852,2023/5/8,14:11,42-13.38N,143-36.38E,28,5.409,
853,2023/5/8,14:12,42-13.69N,143-36.60E,27,5.413,
854,2023/5/8,14:13,42-13.99N,143-36.82E,28,5.388,
855,2023/5/8,14:14,42-14.29N,143-37.04E,28,5.395,
856,2023/5/8,14:15,42-14.60N,143-37.27E,28,5.383,
857,2023/5/8,14:16,42-14.89N,143-37.48E,27,5.401,
858,2023/5/8,14:17,42-15.19N,143-37.69E,28,5.405,
859,2023/5/8,14:18,42-15.48N,143-37.91E,29,5.372,
860,2023/5/8,14:19,42-15.76N,143-38.11E,27,5.366,
861,2023/5/8,14:20,42-16.06N,143-38.33E,27,5.262,
862,2023/5/8,14:21,42-16.33N,143-38.53E,28,5.218,
863,2023/5/8,14:22,42-16.63N,143-38.74E,27,5.167,
864,2023/5/8,14:23,42-16.91N,143-38.94E,27,4.961,
865,2023/5/8,14:24,42-17.19N,143-39.15E,28,4.956,
866,2023/5/8,14:25,42-17.48N,143-39.35E,28,4.956,
867,2023/5/8,14:26,42-17.77N,143-39.56E,28,4.943,
868,2023/5/8,14:27,42-18.05N,143-39.77E,27,4.947,
869,2023/5/8,14:28,42-18.35N,143-39.98E,28,5.016,
870,2023/5/8,14:29,42-18.63N,143-40.18E,28,4.999,
871,2023/5/8,14:30,42-18.92N,143-40.39E,27,5.002,
872,2023/5/8,14:31,42-19.20N,143-40.60E,28,5.037,
873,2023/5/8,14:32,42-19.49N,143-40.81E,28,5.029,
874,2023/5/8,14:33,42-19.77N,143-41.02E,28,5.023,
875,2023/5/8,14:34,42-20.05N,143-41.23E,28,5.025,
876,2023/5/8,14:35,42-20.34N,143-41.45E,28,4.979,
877,2023/5/8,14:36,42-20.62N,143-41.66E,29,5.017,
878,2023/5/8,14:37,42-20.89N,143-41.87E,29,4.954,
879,2023/5/8,14:38,42-21.18N,143-42.08E,29,4.789,
880,2023/5/8,14:39,42-21.45N,143-42.29E,28,4.945,
881,2023/5/8,14:40,42-21.73N,143-42.50E,28,4.815,
882,2023/5/8,14:41,42-22.01N,143-42.71E,29,4.785,
883,2023/5/8,14:42,42-22.29N,143-42.92E,29,4.791,
884,2023/5/8,14:43,42-22.57N,143-43.13E,28,4.771,
885,2023/5/8,14:44,42-22.85N,143-43.34E,29,4.744,
886,2023/5/8,14:45,42-23.12N,143-43.56E,29,4.775,
887,2023/5/8,14:46,42-23.41N,143-43.77E,29,4.825,
888,2023/5/8,14:47,42-23.68N,143-43.99E,29,4.919,
889,2023/5/8,14:48,42-23.96N,143-44.19E,29,5.258,
890,2023/5/8,14:49,42-24.24N,143-44.42E,31,5.261,
891,2023/5/8,14:50,42-24.52N,143-44.64E,30,4.877,
892,2023/5/8,14:51,42-24.80N,143-44.87E,31,4.863,
893,2023/5/8,14:52,42-25.07N,143-45.11E,32,4.794,
894,2023/5/8,14:53,42-25.33N,143-45.33E,31,4.661,
895,2023/5/8,14:54,42-25.60N,143-45.55E,30,4.719,
896,2023/5/8,14:55,42-25.88N,143-45.78E,30,4.696,
897,2023/5/8,14:56,42-26.16N,143-46.00E,31,4.787,
898,2023/5/8,14:57,42-26.43N,143-46.22E,31,4.837,
899,2023/5/8,14:58,42-26.70N,143-46.45E,31,4.924,
900,2023/5/8,14:59,42-26.97N,143-46.67E,31,4.981,
901,2023/5/8,15:00,42-27.24N,143-46.89E,30,5.063,
902,2023/5/8,15:01,42-27.52N,143-47.12E,31,5.113,
903,2023/5/8,15:02,42-27.78N,143-47.33E,30,5.101,
904,2023/5/8,15:03,42-28.05N,143-47.55E,31,5.096,
905,2023/5/8,15:04,42-28.31N,143-47.79E,33,5.16,
906,2023/5/8,15:05,42-28.58N,143-48.03E,33,5.187,
907,2023/5/8,15:06,42-28.84N,143-48.26E,32,5.184,
908,2023/5/8,15:07,42-29.11N,143-48.49E,32,5.31,
909,2023/5/8,15:08,42-29.38N,143-48.73E,33,5.115,
910,2023/5/8,15:09,42-29.66N,143-48.98E,32,5.008,
911,2023/5/8,15:10,42-29.96N,143-49.23E,31,4.966,
912,2023/5/8,15:11,42-30.23N,143-49.48E,32,4.976,
913,2023/5/8,15:12,42-30.50N,143-49.71E,33,5.222,
914,2023/5/8,15:13,42-30.77N,143-49.94E,32,5.6,
915,2023/5/8,15:14,42-31.05N,143-50.18E,32,5.784,
916,2023/5/8,15:15,42-31.32N,143-50.42E,31,5.832,
917,2023/5/8,15:16,42-31.58N,143-50.63E,31,5.972,
918,2023/5/8,15:17,42-31.85N,143-50.87E,32,6.025,
919,2023/5/8,15:18,42-32.11N,143-51.10E,32,6.12,
920,2023/5/8,15:19,42-32.39N,143-51.33E,31,6.186,
921,2023/5/8,15:20,42-32.65N,143-51.55E,32,6.184,
922,2023/5/8,15:21,42-32.92N,143-51.78E,31,6.117,
923,2023/5/8,15:22,42-33.19N,143-52.01E,31,6.043,
924,2023/5/8,15:23,42-33.46N,143-52.24E,32,6.045,
925,2023/5/8,15:24,42-33.74N,143-52.46E,31,6.115,
926,2023/5/8,15:25,42-34.01N,143-52.69E,31,6.065,
927,2023/5/8,15:26,42-34.27N,143-52.93E,33,6.045,
928,2023/5/8,15:27,42-34.54N,143-53.16E,33,6.118,
929,2023/5/8,15:28,42-34.81N,143-53.39E,31,6.035,
930,2023/5/8,15:29,42-35.08N,143-53.63E,32,5.395,
931,2023/5/8,15:30,42-35.33N,143-53.84E,33,5.329,
932,2023/5/8,15:31,42-35.57N,143-54.05E,32,5.329,
933,2023/5/8,15:32,42-35.83N,143-54.28E,32,5.255,
934,2023/5/8,15:33,42-36.10N,143-54.52E,32,5.218,
935,2023/5/8,15:34,42-36.37N,143-54.75E,33,5.225,
936,2023/5/8,15:35,42-36.65N,143-54.99E,32,5.235,
937,2023/5/8,15:36,42-36.91N,143-55.22E,33,5.216,
938,2023/5/8,15:37,42-37.18N,143-55.45E,32,5.204,
939,2023/5/8,15:38,42-37.45N,143-55.69E,33,5.203,
940,2023/5/8,15:39,42-37.74N,143-55.95E,33,5.189,
941,2023/5/8,15:40,42-38.01N,143-56.19E,32,5.229,
942,2023/5/8,15:41,42-38.28N,143-56.42E,33,5.2,
943,2023/5/8,15:42,42-38.56N,143-56.66E,33,5.196,
944,2023/5/8,15:43,42-38.82N,143-56.89E,33,5.204,
945,2023/5/8,15:44,42-39.04N,143-57.12E,33,5.2,
946,2023/5/8,15:45,42-39.31N,143-57.36E,32,5.197,
947,2023/5/8,15:46,42-39.58N,143-57.60E,33,5.202,
948,2023/5/8,15:47,42-39.85N,143-57.84E,33,5.182,
949,2023/5/8,15:48,42-40.12N,143-58.07E,32,5.167,
950,2023/5/8,15:49,42-40.39N,143-58.31E,32,5.217,
951,2023/5/8,15:50,42-40.67N,143-58.56E,33,5.255,
952,2023/5/8,15:51,42-40.93N,143-58.79E,32,5.261,
953,2023/5/8,15:52,42-41.19N,143-59.02E,32,5.307,
954,2023/5/8,15:53,42-41.46N,143-59.26E,33,5.304,
955,2023/5/8,15:54,42-41.72N,143-59.50E,34,5.312,
956,2023/5/8,15:55,42-41.98N,143-59.75E,34,5.303,
957,2023/5/8,15:56,42-42.23N,144-00.01E,37,5.303,
958,2023/5/8,15:57,42-42.48N,144-00.28E,39,5.299,
959,2023/5/8,15:58,42-42.72N,144-00.56E,40,5.288,
960,2023/5/8,15:59,42-42.96N,144-00.84E,39,5.329,
961,2023/5/8,16:00,42-43.21N,144-01.11E,39,5.342,
962,2023/5/8,16:01,42-43.46N,144-01.39E,39,5.349,
963,2023/5/8,16:02,42-43.70N,144-01.66E,39,5.355,
964,2023/5/8,16:03,42-43.93N,144-01.93E,40,5.327,
965,2023/5/8,16:04,42-44.17N,144-02.21E,40,5.319,
966,2023/5/8,16:05,42-44.41N,144-02.49E,40,5.322,
967,2023/5/8,16:06,42-44.66N,144-02.77E,40,5.343,
968,2023/5/8,16:07,42-44.90N,144-03.05E,40,5.451,
969,2023/5/8,16:08,42-45.15N,144-03.33E,39,5.504,
970,2023/5/8,16:09,42-45.39N,144-03.60E,39,5.475,
971,2023/5/8,16:10,42-45.64N,144-03.88E,38,5.508,
972,2023/5/8,16:11,42-45.87N,144-04.14E,39,5.552,
973,2023/5/8,16:12,42-46.11N,144-04.42E,39,5.548,
974,2023/5/8,16:13,42-46.36N,144-04.69E,39,5.469,
975,2023/5/8,16:14,42-46.60N,144-04.96E,39,5.464,
976,2023/5/8,16:15,42-46.86N,144-05.25E,39,5.433,
977,2023/5/8,16:16,42-47.09N,144-05.51E,39,5.457,
978,2023/5/8,16:17,42-47.33N,144-05.79E,39,5.431,
979,2023/5/8,16:18,42-47.57N,144-06.06E,40,5.317,
980,2023/5/8,16:19,42-47.82N,144-06.34E,39,5.261,
981,2023/5/8,16:20,42-48.06N,144-06.62E,39,5.249,
982,2023/5/8,16:21,42-48.32N,144-06.88E,36,5.245,